FW2979 Weather Reports


Display with metric or nautical units.
time (UTC)temp
F
wind
direction
speed
MPH
gust
MPH
rain 1hr
in
rain 24hr
in
rain mn
in
humidity
%
barometer
mb
20260505130256 49 205 4.0 7.0 0.00 0.00 0.00 71 814.1
20260505130146 49 257 3.0 8.0 0.00 0.00 0.00 71 814.2
20260505124856 52 239 4.0 12.0 0.00 0.00 0.00 62 813.9
20260505124746 52 294 10.0 16.0 0.00 0.00 0.00 63 813.9
20260505124636 53 320 10.0 14.0 0.00 0.00 0.00 61 813.9
20260505124527 53 313 9.0 13.0 0.00 0.00 0.00 62 814.2
20260505124417 53 330 7.0 10.0 0.00 0.00 0.00 59 814.2
20260505124307 53 346 6.0 12.0 0.00 0.00 0.00 54 814.2
20260505124156 53 350 4.0 8.0 0.00 0.00 0.00 48 814.2
20260505124046 53 18 4.0 8.0 0.00 0.00 0.00 42 814.2
20260505123828 52 80 6.0 10.0 0.00 0.00 0.00 45 814.2
20260505123717 52 28 5.0 8.0 0.00 0.00 0.00 45 814.2
20260505123606 52 22 6.0 12.0 0.00 0.00 0.00 40 814.2
20260505123456 52 40 10.0 13.0 0.00 0.00 0.00 42 814.2
20260505123347 51 47 9.0 13.0 0.00 0.00 0.00 45 814.2
20260505123236 51 17 10.0 15.0 0.00 0.00 0.00 43 814.2
20260505123126 51 8 12.0 19.0 0.00 0.00 0.00 43 814.1
20260505123016 52 18 10.0 18.0 0.00 0.00 0.00 43 814.1
20260505122906 52 32 11.0 19.0 0.00 0.00 0.00 46 813.9
20260505122756 51 14 8.0 11.0 0.00 0.00 0.00 44 814.1
20260505122538 51 354 9.0 16.0 0.00 0.00 0.00 45 814.1
20260505122426 52 347 15.0 22.0 0.00 0.00 0.00 44 813.8
20260505122318 52 26 12.0 21.0 0.00 0.00 0.00 43 814.1
20260505122056 52 51 9.0 17.0 0.00 0.00 0.00 42 814.1
20260505121836 52 21 6.0 12.0 0.00 0.00 0.00 42 814.1
20260505121616 51 10 10.0 17.0 0.00 0.00 0.00 42 813.9
20260505121356 51 64 9.0 13.0 0.00 0.00 0.00 44 814.2
20260505121246 51 42 9.0 16.0 0.00 0.00 0.00 46 814.2
20260505121144 51 49 15.0 18.0 0.00 0.00 0.00 44 813.9
20260505121027 51 48 15.0 20.0 0.00 0.00 0.00 44 813.8
20260505120806 51 25 15.0 24.0 0.00 0.00 0.00 44 813.9
20260505120546 50 11 4.0 8.0 0.00 0.00 0.00 45 814.2
20260505120437 50 20 10.0 17.0 0.00 0.00 0.00 45 814.2
20260505120326 51 39 17.0 21.0 0.00 0.00 0.00 46 814.1
20260505120217 51 46 17.0 20.0 0.00 0.00 0.00 46 813.9
20260505115956 51 44 12.0 17.0 0.00 0.00 0.00 46 814.2
20260505115847 51 43 10.0 14.0 0.00 0.00 0.00 46 814.2
20260505115741 51 34 10.0 16.0 0.00 0.00 0.00 47 814.2
20260505115407 51 34 10.0 17.0 0.00 0.00 0.00 45 814.2
20260505115256 51 43 10.0 13.0 0.00 0.00 0.00 44 814.2
20260505115146 51 66 12.0 19.0 0.00 0.00 0.00 44 814.2
20260505114926 51 85 16.0 22.0 0.00 0.00 0.00 46 814.1
20260505114707 51 51 18.0 22.0 0.00 0.00 0.00 45 814.1
20260505114556 51 45 21.0 26.0 0.00 0.00 0.00 44 814.1
20260505114447 51 8 11.0 20.0 0.00 0.00 0.00 46 814.2
20260505114336 51 2 14.0 21.0 0.00 0.00 0.00 44 814.2
20260505114226 51 30 15.0 18.0 0.00 0.00 0.00 44 814.2
20260505114116 51 37 10.0 21.0 0.00 0.00 0.00 43 814.2
20260505113856 51 6 12.0 17.0 0.00 0.00 0.00 45 814.2
20260505113746 50 32 11.0 15.0 0.00 0.00 0.00 45 814.2
20260505113636 50 59 11.0 16.0 0.00 0.00 0.00 46 814.2
20260505113527 50 70 9.0 17.0 0.00 0.00 0.00 43 814.3
20260505113416 50 57 13.0 16.0 0.00 0.00 0.00 46 814.2
20260505113307 50 49 15.0 21.0 0.00 0.00 0.00 45 814.2
20260505113156 50 54 15.0 20.0 0.00 0.00 0.00 46 814.2
20260505113047 50 41 14.0 18.0 0.00 0.00 0.00 46 814.2
20260505112936 50 41 16.0 26.0 0.00 0.00 0.00 46 814.2
20260505112827 51 55 16.0 21.0 0.00 0.00 0.00 46 814.2
20260505112716 51 51 17.0 24.0 0.00 0.00 0.00 48 814.2
20260505112606 51 40 12.0 17.0 0.00 0.00 0.00 47 814.2
20260505112348 51 36 13.0 21.0 0.00 0.00 0.00 47 814.2
20260505112237 51 24 16.0 23.0 0.00 0.00 0.00 46 814.1
20260505112126 51 17 10.0 18.0 0.00 0.00 0.00 46 814.2
20260505112017 51 16 12.0 22.0 0.00 0.00 0.00 46 814.2
20260505111906 50 42 14.0 19.0 0.00 0.00 0.00 47 814.2
20260505111756 50 32 12.0 21.0 0.00 0.00 0.00 46 814.2
20260505111647 50 51 7.0 11.0 0.00 0.00 0.00 46 814.2
20260505111427 50 54 6.0 13.0 0.00 0.00 0.00 42 814.2
20260505111318 50 50 10.0 17.0 0.00 0.00 0.00 44 814.2
20260505111207 50 28 15.0 21.0 0.00 0.00 0.00 44 814.2
20260505111056 50 36 16.0 21.0 0.00 0.00 0.00 44 814.2
20260505110946 50 23 14.0 20.0 0.00 0.00 0.00 44 814.2
20260505110836 50 4 15.0 24.0 0.00 0.00 0.00 44 814.2
20260505110726 50 19 12.0 20.0 0.00 0.00 0.00 44 814.2
20260505110616 50 51 17.0 26.0 0.00 0.00 0.00 43 814.2
20260505110356 50 52 16.0 22.0 0.00 0.00 0.00 44 814.2
20260505110246 51 55 14.0 21.0 0.00 0.00 0.00 45 814.2
20260505110137 51 20 14.0 20.0 0.00 0.00 0.00 46 814.2
20260505102157 49 53 6.0 10.0 0.00 0.00 0.00 48 814.6
20260505102046 50 48 10.0 16.0 0.00 0.00 0.00 48 814.3
20260505101936 50 68 14.0 21.0 0.00 0.00 0.00 48 814.3
20260505101826 49 81 8.0 12.0 0.00 0.00 0.00 52 814.6
20260505101717 49 16 5.0 12.0 0.00 0.00 0.00 48 814.6
20260505101606 49 336 8.0 16.0 0.00 0.00 0.00 48 814.3
20260505101456 49 20 7.0 14.0 0.00 0.00 0.00 48 814.6
20260505101346 49 62 13.0 16.0 0.00 0.00 0.00 46 814.5
20260505101241 49 49 19.0 27.0 0.00 0.00 0.00 45 814.3
20260505101126 49 58 16.0 23.0 0.00 0.00 0.00 46 814.3
20260505101016 49 38 12.0 21.0 0.00 0.00 0.00 47 814.6
20260505100906 49 40 15.0 22.0 0.00 0.00 0.00 47 814.3
20260505100756 49 46 18.0 25.0 0.00 0.00 0.00 47 814.3
20260505100536 49 40 9.0 20.0 0.00 0.00 0.00 48 814.2
20260505100426 48 35 10.0 16.0 0.00 0.00 0.00 48 814.5
20260505100317 48 50 17.0 23.0 0.00 0.00 0.00 47 814.3
20260505100207 48 58 15.0 24.0 0.00 0.00 0.00 47 814.5
20260505100056 48 69 14.0 17.0 0.00 0.00 0.00 47 814.3
20260505095946 49 55 21.0 27.0 0.00 0.00 0.00 47 814.3
20260505095837 49 67 18.0 23.0 0.00 0.00 0.00 45 814.2
20260505095616 48 50 16.0 22.0 0.00 0.00 0.00 44 814.6
20260505095506 49 57 19.0 24.0 0.00 0.00 0.00 45 814.6
20260505095356 49 65 19.0 24.0 0.00 0.00 0.00 45 814.3
20260505095246 48 64 17.0 23.0 0.00 0.00 0.00 45 814.6
20260505095136 48 63 18.0 22.0 0.00 0.00 0.00 44 814.5
20260505095026 49 55 21.0 30.0 0.00 0.00 0.00 45 814.2
20260505094806 49 61 13.0 18.0 0.00 0.00 0.00 48 814.6
20260505094656 49 66 15.0 21.0 0.00 0.00 0.00 47 814.6
20260505094547 49 62 16.0 23.0 0.00 0.00 0.00 46 814.6
20260505094436 49 61 18.0 30.0 0.00 0.00 0.00 46 814.3
20260505094326 49 58 15.0 24.0 0.00 0.00 0.00 46 814.5
20260505094216 49 61 16.0 22.0 0.00 0.00 0.00 46 814.6
20260505094106 49 54 22.0 28.0 0.00 0.00 0.00 44 814.3
20260505093956 49 43 14.0 24.0 0.00 0.00 0.00 48 814.3
20260505093847 49 43 18.0 25.0 0.00 0.00 0.00 45 814.5
20260505093406 49 55 21.0 26.0 0.00 0.00 0.00 44 814.3
20260505093300 49 65 17.0 23.0 0.00 0.00 0.00 46 814.6
20260505093146 49 74 18.0 30.0 0.00 0.00 0.00 46 814.5
20260505093036 49 56 14.0 19.0 0.00 0.00 0.00 48 814.6
20260505092926 49 37 9.0 17.0 0.00 0.00 0.00 51 814.6
20260505092707 49 63 12.0 22.0 0.00 0.00 0.00 51 814.6
20260505092556 49 42 7.0 11.0 0.00 0.00 0.00 53 814.6
20260505092446 48 73 8.0 15.0 0.00 0.00 0.00 53 814.6
20260505092336 48 69 10.0 15.0 0.00 0.00 0.00 51 814.6
20260505092226 48 36 12.0 17.0 0.00 0.00 0.00 51 814.6
20260505092116 48 53 15.0 19.0 0.00 0.00 0.00 52 814.3
20260505092006 48 50 18.0 25.0 0.00 0.00 0.00 52 814.3
20260505091856 47 55 10.0 20.0 0.00 0.00 0.00 51 814.6
20260505091636 48 36 20.0 25.0 0.00 0.00 0.00 51 814.3
20260505091526 48 33 21.0 28.0 0.00 0.00 0.00 50 814.3
20260505091416 48 23 12.0 23.0 0.00 0.00 0.00 51 814.6
20260505091306 48 30 12.0 16.0 0.00 0.00 0.00 49 814.6
20260505091156 48 33 19.0 28.0 0.00 0.00 0.00 48 814.6
20260505091046 48 42 14.0 25.0 0.00 0.00 0.00 51 814.6
20260505090717 48 80 12.0 16.0 0.00 0.00 0.00 50 814.6
20260505090606 48 61 17.0 23.0 0.00 0.00 0.00 52 814.3
20260505090456 48 39 14.0 24.0 0.00 0.00 0.00 52 814.6
20260505090346 48 11 10.0 14.0 0.00 0.00 0.00 52 814.6
20260505090236 48 31 12.0 16.0 0.00 0.00 0.00 52 814.6
20260505090016 47 67 15.0 23.0 0.00 0.00 0.00 50 814.6
20260505085906 47 49 20.0 25.0 0.00 0.00 0.00 52 814.3
20260505085426 47 53 18.0 26.0 0.00 0.00 0.00 53 814.6
20260505085316 47 54 19.0 24.0 0.00 0.00 0.00 54 814.6
20260505085208 47 49 12.0 20.0 0.00 0.00 0.00 53 814.6
20260505085056 47 41 14.0 20.0 0.00 0.00 0.00 51 814.6
20260505084946 47 50 20.0 26.0 0.00 0.00 0.00 51 814.6
20260505084837 48 41 20.0 26.0 0.00 0.00 0.00 50 814.6
20260505084726 49 52 18.0 24.0 0.00 0.00 0.00 52 814.6
20260505084616 49 43 11.0 16.0 0.00 0.00 0.00 52 814.7
20260505084356 49 46 7.0 10.0 0.00 0.00 0.00 53 814.7
20260505084136 48 45 9.0 13.0 0.00 0.00 0.00 52 814.7
20260505083915 48 355 4.0 7.0 0.00 0.00 0.00 49 814.7
20260505083806 48 41 8.0 12.0 0.00 0.00 0.00 49 814.7
20260505083656 48 101 8.0 16.0 0.00 0.00 0.00 48 814.7
20260505083435 47 62 15.0 22.0 0.00 0.00 0.00 50 814.6
20260505083326 47 52 15.0 20.0 0.00 0.00 0.00 54 814.6
20260505083216 47 66 16.0 20.0 0.00 0.00 0.00 52 814.7
20260505083106 48 52 14.0 18.0 0.00 0.00 0.00 51 814.7
20260505082955 48 34 13.0 21.0 0.00 0.00 0.00 52 814.6
20260505082846 48 53 15.0 20.0 0.00 0.00 0.00 52 814.6
20260505082736 48 42 10.0 28.0 0.00 0.00 0.00 54 814.5
20260505082626 48 92 9.0 11.0 0.00 0.00 0.00 55 814.7
20260505082516 47 38 10.0 13.0 0.00 0.00 0.00 55 814.7
20260505082406 47 41 8.0 12.0 0.00 0.00 0.00 54 814.6
20260505082256 47 43 11.0 15.0 0.00 0.00 0.00 53 814.7
20260505082146 47 50 16.0 23.0 0.00 0.00 0.00 53 814.7
20260505082035 47 15 8.0 12.0 0.00 0.00 0.00 52 814.7
20260505081815 47 95 15.0 19.0 0.00 0.00 0.00 52 814.6
20260505081706 47 76 14.0 18.0 0.00 0.00 0.00 54 814.6
20260505081556 47 61 12.0 18.0 0.00 0.00 0.00 53 814.7
20260505081446 47 56 16.0 22.0 0.00 0.00 0.00 53 814.6
20260505081336 47 55 17.0 22.0 0.00 0.00 0.00 53 814.6
20260505081226 47 48 17.0 23.0 0.00 0.00 0.00 53 814.6
20260505081115 47 54 18.0 25.0 0.00 0.00 0.00 53 814.6
20260505081006 47 44 17.0 24.0 0.00 0.00 0.00 53 814.6
20260505080855 47 56 15.0 21.0 0.00 0.00 0.00 55 814.6
20260505080746 47 48 15.0 20.0 0.00 0.00 0.00 55 814.6
20260505080635 47 40 13.0 19.0 0.00 0.00 0.00 54 814.6
20260505080525 47 46 16.0 19.0 0.00 0.00 0.00 52 814.6
20260505080415 47 45 15.0 23.0 0.00 0.00 0.00 54 814.6
20260505080156 47 55 17.0 22.0 0.00 0.00 0.00 54 814.6
20260505080046 47 53 17.0 21.0 0.00 0.00 0.00 54 814.6
20260505075936 47 50 13.0 19.0 0.00 0.00 0.00 53 814.6
20260505075825 47 47 13.0 22.0 0.00 0.00 0.00 55 814.6
20260505075716 47 46 13.0 19.0 0.00 0.00 0.00 55 814.6
20260505075455 47 39 14.0 23.0 0.00 0.00 0.00 56 814.6
20260505075345 47 25 9.0 16.0 0.00 0.00 0.00 55 814.6
20260505075236 47 41 14.0 19.0 0.00 0.00 0.00 54 814.6
20260505075126 47 42 16.0 23.0 0.00 0.00 0.00 55 814.6
20260505075016 47 46 14.0 21.0 0.00 0.00 0.00 54 814.6
20260505074646 47 40 15.0 21.0 0.00 0.00 0.00 56 814.6
20260505074536 47 28 9.0 15.0 0.00 0.00 0.00 55 814.7
20260505073836 47 46 15.0 17.0 0.00 0.00 0.00 56 814.6
20260505073726 46 27 13.0 21.0 0.00 0.00 0.00 56 814.6
20260505073246 47 34 13.0 17.0 0.00 0.00 0.00 54 814.6
20260505073136 47 52 17.0 25.0 0.00 0.00 0.00 54 814.6
20260505073026 46 61 13.0 18.0 0.00 0.00 0.00 55 814.6
20260505072915 46 38 13.0 21.0 0.00 0.00 0.00 56 814.3
20260505072806 46 30 14.0 21.0 0.00 0.00 0.00 56 814.5
20260505072655 46 42 16.0 21.0 0.00 0.00 0.00 56 814.5
20260505072545 46 48 13.0 19.0 0.00 0.00 0.00 57 814.6
20260505072436 46 34 15.0 21.0 0.00 0.00 0.00 55 814.6
20260505072326 47 34 14.0 20.0 0.00 0.00 0.00 55 814.6
20260505072216 46 47 16.0 25.0 0.00 0.00 0.00 55 814.5
20260505072106 46 41 13.0 19.0 0.00 0.00 0.00 56 814.3
20260505071956 46 54 15.0 20.0 0.00 0.00 0.00 56 814.6
20260505071845 46 27 10.0 16.0 0.00 0.00 0.00 58 814.6
20260505071736 46 20 12.0 17.0 0.00 0.00 0.00 58 814.6
20260505071406 46 20 14.0 20.0 0.00 0.00 0.00 57 814.3
20260505071255 46 16 12.0 18.0 0.00 0.00 0.00 57 814.6
20260505071146 46 8 14.0 20.0 0.00 0.00 0.00 59 814.5
20260505071035 46 17 11.0 17.0 0.00 0.00 0.00 57 814.5
20260505070816 46 38 12.0 17.0 0.00 0.00 0.00 59 814.3
20260505070706 46 18 11.0 19.0 0.00 0.00 0.00 59 814.3
20260505070556 46 14 14.0 18.0 0.00 0.00 0.00 56 814.3
20260505070446 46 16 12.0 21.0 0.00 0.00 0.00 59 814.3
20260505070226 45 12 15.0 20.0 0.00 0.00 0.00 58 814.3
20260505070005 45 45 16.0 22.0 0.00 0.00 0.00 58 814.3
20260505065856 45 21 11.0 20.0 0.00 0.00 0.00 58 814.3
20260505065746 45 22 14.0 20.0 0.00 0.00 0.00 59 814.3
20260505065636 45 21 12.0 21.0 0.00 0.00 0.00 59 814.3
20260505065526 45 21 13.0 19.0 0.00 0.00 0.00 58 814.3
20260505065156 46 16 9.0 18.0 0.00 0.00 0.00 58 814.3
20260505065045 46 36 14.0 20.0 0.00 0.00 0.00 56 814.3
20260505064936 46 47 15.0 23.0 0.00 0.00 0.00 57 814.2
20260505064825 45 37 12.0 19.0 0.00 0.00 0.00 59 814.2
20260505064606 45 16 13.0 22.0 0.00 0.00 0.00 58 814.3
20260505064456 45 23 12.0 21.0 0.00 0.00 0.00 58 814.2
20260505064345 45 36 15.0 21.0 0.00 0.00 0.00 57 814.3
20260505064235 45 28 12.0 20.0 0.00 0.00 0.00 58 814.2
20260505064126 45 32 14.0 19.0 0.00 0.00 0.00 58 814.2
20260505064016 45 12 13.0 19.0 0.00 0.00 0.00 58 814.2
20260505063906 45 18 12.0 18.0 0.00 0.00 0.00 59 814.2
20260505063756 45 14 12.0 19.0 0.00 0.00 0.00 58 814.2
20260505063646 45 25 14.0 22.0 0.00 0.00 0.00 58 814.2
20260505063536 45 47 12.0 21.0 0.00 0.00 0.00 58 814.2
20260505063425 45 42 12.0 17.0 0.00 0.00 0.00 59 814.2
20260505063316 45 20 12.0 19.0 0.00 0.00 0.00 59 814.2
20260505063206 45 21 12.0 20.0 0.00 0.00 0.00 59 814.2
20260505063056 45 14 10.0 18.0 0.00 0.00 0.00 60 814.2
20260505062946 45 24 11.0 18.0 0.00 0.00 0.00 59 814.2
20260505062835 45 18 13.0 22.0 0.00 0.00 0.00 59 814.2
20260505062726 45 13 15.0 21.0 0.00 0.00 0.00 58 814.2
20260505062616 45 41 15.0 21.0 0.00 0.00 0.00 58 814.1
20260505062506 45 36 14.0 20.0 0.00 0.00 0.00 58 814.2
20260505062355 45 36 16.0 23.0 0.00 0.00 0.00 59 814.2
20260505062136 45 29 14.0 19.0 0.00 0.00 0.00 59 814.2
20260505062025 45 29 15.0 21.0 0.00 0.00 0.00 58 814.2
20260505061915 45 31 17.0 24.0 0.00 0.00 0.00 58 814.2
20260505061806 45 48 14.0 23.0 0.00 0.00 0.00 59 814.2
20260505061655 44 46 13.0 17.0 0.00 0.00 0.00 60 814.2
20260505061436 45 20 15.0 24.0 0.00 0.00 0.00 59 814.2
20260505061326 45 20 12.0 21.0 0.00 0.00 0.00 58 814.2
20260505061216 45 48 16.0 21.0 0.00 0.00 0.00 58 814.2
20260505061106 45 34 15.0 23.0 0.00 0.00 0.00 59 814.1
20260505060956 44 32 13.0 20.0 0.00 0.00 0.00 59 814.2
20260505060845 44 37 14.0 20.0 0.00 0.00 0.00 59 814.2
20260505060735 44 24 13.0 18.0 0.00 0.00 0.00 59 814.2
20260505060626 44 16 12.0 19.0 0.00 0.00 0.00 60 813.9
20260505060515 44 22 13.0 21.0 0.00 0.00 0.00 60 813.9
20260505060406 44 8 12.0 18.0 0.00 0.00 0.00 59 814.2
20260505060255 44 7 17.0 21.0 0.00 0.00 0.00 59 813.9
20260505060036 44 14 13.0 21.0 0.00 0.00 0.00 59 813.9
20260505055925 44 16 13.0 21.0 0.00 0.00 0.00 59 814.2
20260505055706 44 24 14.0 23.0 0.00 0.00 0.00 60 813.9
20260505055556 44 14 14.0 23.0 0.00 0.00 0.00 60 814.1
20260505055445 44 23 16.0 24.0 0.00 0.00 0.00 60 813.9
20260505055336 44 19 14.0 22.0 0.00 0.00 0.00 60 813.9
20260505055225 44 20 11.0 19.0 0.00 0.00 0.00 60 813.9
20260505055116 44 22 14.0 24.0 0.00 0.00 0.00 59 813.8
20260505055005 44 25 13.0 22.0 0.00 0.00 0.00 60 814.1
20260505054855 44 21 15.0 21.0 0.00 0.00 0.00 59 813.8
20260505054745 44 12 18.0 27.0 0.00 0.00 0.00 59 813.8
20260505054636 44 8 20.0 29.0 0.00 0.00 0.00 59 813.8
20260505054526 44 11 20.0 27.0 0.00 0.00 0.00 60 813.8
20260505054416 44 9 19.0 25.0 0.00 0.00 0.00 60 813.9
20260505054305 44 9 21.0 27.0 0.00 0.00 0.00 60 813.8
20260505054155 44 11 21.0 26.0 0.00 0.00 0.00 60 813.8
20260505054045 44 11 17.0 24.0 0.00 0.00 0.00 61 813.8
20260505053935 44 10 19.0 25.0 0.00 0.00 0.00 60 813.8
20260505053826 44 8 21.0 29.0 0.00 0.00 0.00 60 813.8
20260505053715 44 12 16.0 23.0 0.00 0.00 0.00 61 813.8
20260505053455 44 11 19.0 29.0 0.00 0.00 0.00 60 813.8
20260505053346 44 10 19.0 23.0 0.00 0.00 0.00 60 813.8
20260505053126 43 8 15.0 21.0 0.00 0.00 0.00 61 813.8
20260505053015 43 6 19.0 24.0 0.00 0.00 0.00 61 813.8
20260505052905 43 12 18.0 23.0 0.00 0.00 0.00 62 813.8
20260505052755 43 8 18.0 23.0 0.00 0.00 0.00 61 813.8
20260505052646 43 5 18.0 24.0 0.00 0.00 0.00 62 813.8
20260505052536 43 5 19.0 27.0 0.00 0.00 0.00 61 813.8
20260505052425 43 2 21.0 26.0 0.00 0.00 0.00 61 813.8
20260505052315 43 0 21.0 26.0 0.00 0.00 0.00 61 813.8
20260505052055 43 3 20.0 25.0 0.00 0.00 0.00 60 813.7
20260505051945 43 11 21.0 27.0 0.00 0.00 0.00 61 813.8
20260505051615 44 7 22.0 29.0 0.00 0.00 0.00 60 813.5
20260505051505 44 4 23.0 35.0 0.00 0.00 0.00 60 813.8
20260505051245 43 15 20.0 27.0 0.00 0.00 0.00 61 813.8
20260505051135 43 11 20.0 26.0 0.00 0.00 0.00 61 813.8
20260505051026 43 2 16.0 23.0 0.00 0.00 0.00 61 813.8
20260505050915 43 10 21.0 26.0 0.00 0.00 0.00 61 813.7
20260505050805 43 4 21.0 26.0 0.00 0.00 0.00 62 813.7
20260505050655 42 3 20.0 24.0 0.00 0.00 0.00 62 813.8
20260505050435 42 5 19.0 27.0 0.00 0.00 0.00 62 813.8
20260505050325 43 1 21.0 26.0 0.00 0.00 0.00 62 813.5
20260505050215 43 3 19.0 24.0 0.00 0.00 0.00 61 813.8
20260505050106 43 8 21.0 25.0 0.00 0.00 0.00 61 813.7
20260505041756 42 3 23.0 31.0 0.00 0.00 0.00 63 813.3
20260505041646 42 6 19.0 23.0 0.00 0.00 0.00 63 813.4
20260505041536 42 4 18.0 22.0 0.00 0.00 0.00 62 813.4
20260505041425 42 2 19.0 25.0 0.00 0.00 0.00 62 813.4
20260505041315 42 357 21.0 29.0 0.00 0.00 0.00 62 813.4
20260505041056 42 0 23.0 27.0 0.00 0.00 0.00 62 813.3
20260505040946 42 2 24.0 29.0 0.00 0.00 0.00 62 813.3
20260505040835 42 4 21.0 27.0 0.00 0.00 0.00 63 813.3
20260505040725 42 0 20.0 26.0 0.00 0.00 0.00 63 813.3
20260505040616 42 9 21.0 28.0 0.00 0.00 0.00 63 813.3
20260505040506 42 358 21.0 27.0 0.00 0.00 0.00 63 813.3
20260505040246 42 4 20.0 27.0 0.00 0.00 0.00 62 813.3
20260505040136 42 5 24.0 29.0 0.00 0.00 0.00 63 813.1
20260505040026 42 4 19.0 26.0 0.00 0.00 0.00 63 813.3
20260505035915 42 7 22.0 28.0 0.00 0.00 0.00 64 813.3
20260505035805 42 4 21.0 27.0 0.00 0.00 0.00 64 813.3
20260505035546 42 5 21.0 25.0 0.00 0.00 0.00 64 813.3
20260505035436 42 4 20.0 27.0 0.00 0.00 0.00 64 813.3
20260505035325 42 6 21.0 27.0 0.00 0.00 0.00 64 813.3
20260505035105 41 5 25.0 30.0 0.00 0.00 0.00 64 813.0
20260505034956 41 4 23.0 29.0 0.00 0.00 0.00 64 813.0
20260505034626 41 1 23.0 28.0 0.00 0.00 0.00 65 813.1
20260505034406 41 1 22.0 27.0 0.00 0.00 0.00 66 813.1
20260505034256 41 3 21.0 25.0 0.00 0.00 0.00 66 813.1
20260505034035 41 3 19.0 24.0 0.00 0.00 0.00 66 813.1
20260505033925 41 5 21.0 26.0 0.00 0.00 0.00 66 813.1
20260505033705 41 3 22.0 27.0 0.00 0.00 0.00 66 813.0
20260505033556 41 3 22.0 28.0 0.00 0.00 0.00 66 813.0
20260505033445 41 7 21.0 26.0 0.00 0.00 0.00 65 813.1
20260505033336 41 2 21.0 28.0 0.00 0.00 0.00 66 813.1
20260505033225 41 2 23.0 28.0 0.00 0.00 0.00 66 813.1
20260505033116 41 3 23.0 29.0 0.00 0.00 0.00 66 813.3
20260505033005 41 6 21.0 27.0 0.00 0.00 0.00 66 813.0
20260505032745 41 3 22.0 28.0 0.00 0.00 0.00 66 813.1
20260505032635 41 0 20.0 25.0 0.00 0.00 0.00 66 813.1
20260505032525 41 0 19.0 27.0 0.00 0.00 0.00 66 813.0
20260505032156 41 2 23.0 31.0 0.00 0.00 0.00 66 813.0
20260505032045 41 3 22.0 30.0 0.00 0.00 0.00 66 813.3
20260505031936 41 8 20.0 27.0 0.00 0.00 0.00 66 813.1
20260505031715 41 10 22.0 27.0 0.00 0.00 0.00 66 813.0
20260505031455 41 6 21.0 27.0 0.00 0.00 0.00 66 813.1
20260505031126 41 357 22.0 29.0 0.00 0.00 0.00 66 813.0
20260505030905 41 8 22.0 28.0 0.00 0.00 0.00 66 813.0
20260505030755 41 5 21.0 26.0 0.00 0.00 0.00 66 813.0
20260505030645 41 8 21.0 28.0 0.00 0.00 0.00 66 813.0
20260505030535 41 9 19.0 30.0 0.00 0.00 0.00 66 813.0
20260505030425 41 2 20.0 25.0 0.00 0.00 0.00 66 813.0
20260505030316 41 1 20.0 26.0 0.00 0.00 0.00 66 813.0
20260505030206 41 1 20.0 26.0 0.00 0.00 0.00 66 813.0
20260505030056 41 6 22.0 30.0 0.00 0.00 0.00 66 813.0
20260505025946 41 357 23.0 30.0 0.00 0.00 0.00 66 813.0
20260505025836 41 10 22.0 27.0 0.00 0.00 0.00 66 813.0
20260505025725 41 1 21.0 28.0 0.00 0.00 0.00 66 813.0
20260505025615 41 1 22.0 29.0 0.00 0.00 0.00 66 813.1
20260505025505 41 355 22.0 29.0 0.00 0.00 0.00 66 813.0
20260505025355 41 6 23.0 29.0 0.00 0.00 0.00 66 813.0
20260505025245 41 6 23.0 29.0 0.00 0.00 0.00 66 813.0
20260505025026 41 7 23.0 30.0 0.00 0.00 0.00 66 813.0
20260505024916 41 5 24.0 31.0 0.00 0.00 0.00 66 813.0
20260505024806 41 0 23.0 29.0 0.00 0.00 0.00 66 813.0
20260505024545 41 0 22.0 28.0 0.00 0.00 0.00 67 813.0
20260505024435 41 0 22.0 29.0 0.00 0.00 0.00 67 813.0
20260505024325 41 0 21.0 26.0 0.00 0.00 0.00 67 813.0
20260505024215 41 1 23.0 31.0 0.00 0.00 0.00 67 813.0
20260505023845 41 1 21.0 30.0 0.00 0.00 0.00 68 813.0
20260505023736 41 2 21.0 28.0 0.00 0.00 0.00 67 812.9
20260505023625 41 4 21.0 27.0 0.00 0.00 0.00 67 813.0
20260505023516 41 358 23.0 29.0 0.00 0.00 0.00 68 813.0
20260505023405 41 0 21.0 26.0 0.00 0.00 0.00 68 813.0
20260505023255 41 0 20.0 24.0 0.00 0.00 0.00 68 813.0
20260505023146 41 0 21.0 27.0 0.00 0.00 0.00 68 813.0
20260505023036 41 0 20.0 26.0 0.00 0.00 0.00 68 813.0
20260505022925 41 2 21.0 27.0 0.00 0.00 0.00 68 813.0
20260505022815 41 354 22.0 28.0 0.00 0.00 0.00 68 813.0
20260505022335 41 358 21.0 27.0 0.00 0.00 0.00 68 813.0
20260505022225 41 357 20.0 27.0 0.00 0.00 0.00 69 813.0
20260505022115 41 358 23.0 29.0 0.00 0.00 0.00 69 813.0
20260505022006 40 357 21.0 27.0 0.00 0.00 0.00 69 813.0
20260505021856 40 354 21.0 28.0 0.00 0.00 0.00 69 813.0
20260505021745 40 356 22.0 27.0 0.00 0.00 0.00 69 813.0
20260505021635 40 358 21.0 27.0 0.00 0.00 0.00 69 813.1
20260505021525 40 358 22.0 27.0 0.00 0.00 0.00 69 813.0
20260505021415 40 357 23.0 30.0 0.00 0.00 0.00 69 813.1
20260505021305 41 355 22.0 27.0 0.00 0.00 0.00 69 813.0
20260505021156 41 358 21.0 29.0 0.00 0.00 0.00 69 813.0
20260505021045 41 353 23.0 31.0 0.00 0.00 0.00 69 813.0
20260505020936 41 351 27.0 36.0 0.00 0.00 0.00 69 813.0
20260505020826 40 352 24.0 31.0 0.00 0.00 0.00 70 813.0
20260505020716 40 351 23.0 27.0 0.00 0.00 0.00 70 813.0
20260505020606 40 1 22.0 31.0 0.00 0.00 0.00 70 813.0
20260505020455 40 7 19.0 26.0 0.00 0.00 0.00 70 813.0
20260505020345 40 9 20.0 25.0 0.00 0.00 0.00 69 813.0
20260505020235 40 358 20.0 25.0 0.00 0.00 0.00 69 813.0
20260505020125 40 344 25.0 35.0 0.00 0.00 0.00 70 813.0
20260505015905 40 5 20.0 25.0 0.00 0.00 0.00 70 813.1
20260505015756 40 1 23.0 29.0 0.00 0.00 0.00 70 813.0
20260505015645 40 358 21.0 27.0 0.00 0.00 0.00 70 813.0
20260505015535 40 354 20.0 26.0 0.00 0.00 0.00 70 813.1
20260505015427 40 353 21.0 28.0 0.00 0.00 0.00 70 813.1
20260505015315 40 4 18.0 24.0 0.00 0.00 0.00 70 813.1
20260505015055 40 4 24.0 31.0 0.00 0.00 0.00 70 813.0
20260505014945 40 7 20.0 24.0 0.00 0.00 0.00 69 813.0
20260505014835 41 358 20.0 24.0 0.00 0.00 0.00 69 813.0
20260505014725 41 350 22.0 26.0 0.00 0.00 0.00 69 813.0
20260505014615 41 353 23.0 28.0 0.00 0.00 0.00 69 812.9
20260505014505 40 3 22.0 28.0 0.00 0.00 0.00 69 813.0
20260505014355 40 10 23.0 27.0 0.00 0.00 0.00 70 813.0
20260505014245 40 14 21.0 28.0 0.00 0.00 0.00 70 813.0
20260505014135 40 15 21.0 28.0 0.00 0.00 0.00 70 813.0
20260505014025 40 8 21.0 26.0 0.00 0.00 0.00 70 813.0
20260505013915 41 12 18.0 24.0 0.00 0.00 0.00 69 813.1
20260505013655 41 0 22.0 30.0 0.00 0.00 0.00 69 813.1
20260505013545 41 2 22.0 29.0 0.00 0.00 0.00 69 813.0
20260505013435 41 358 21.0 27.0 0.00 0.00 0.00 69 813.0
20260505013325 41 358 23.0 29.0 0.00 0.00 0.00 69 813.0
20260505013215 41 5 23.0 29.0 0.00 0.00 0.00 70 813.0
20260505013105 41 8 23.0 31.0 0.00 0.00 0.00 70 813.0
20260505012955 41 4 21.0 28.0 0.00 0.00 0.00 69 813.0
20260505012845 41 2 20.0 27.0 0.00 0.00 0.00 69 813.1
20260505012735 41 2 23.0 29.0 0.00 0.00 0.00 69 813.0
20260505012625 41 8 21.0 25.0 0.00 0.00 0.00 69 813.0
20260505012515 41 11 22.0 30.0 0.00 0.00 0.00 69 813.0
20260505012405 41 13 22.0 27.0 0.00 0.00 0.00 70 813.0
20260505012255 41 8 19.0 23.0 0.00 0.00 0.00 70 813.0
20260505012145 41 6 20.0 26.0 0.00 0.00 0.00 70 813.1
20260505012035 41 8 22.0 28.0 0.00 0.00 0.00 70 813.1
20260505011925 41 9 20.0 25.0 0.00 0.00 0.00 70 813.1
20260505011815 41 10 21.0 26.0 0.00 0.00 0.00 70 813.0
20260505011705 41 6 20.0 24.0 0.00 0.00 0.00 70 813.1
20260505011555 41 8 19.0 25.0 0.00 0.00 0.00 69 813.0
20260505011445 41 9 21.0 27.0 0.00 0.00 0.00 68 813.0
20260505011335 41 14 21.0 28.0 0.00 0.00 0.00 68 813.0
20260505011225 41 18 17.0 26.0 0.00 0.00 0.00 69 813.0
20260505011115 41 14 19.0 27.0 0.00 0.00 0.00 69 813.0
20260505010855 41 12 19.0 26.0 0.00 0.00 0.00 68 813.0
20260505010635 42 17 17.0 26.0 0.00 0.00 0.00 67 813.0
20260505010526 42 22 16.0 24.0 0.00 0.00 0.00 67 813.0
20260505010415 42 30 19.0 27.0 0.00 0.00 0.00 67 813.0
20260505010305 42 28 17.0 26.0 0.00 0.00 0.00 66 813.0
20260505010045 42 23 18.0 28.0 0.00 0.00 0.00 67 813.1
20260505005935 41 21 17.0 25.0 0.00 0.00 0.00 67 813.0
20260505005825 41 24 17.0 25.0 0.00 0.00 0.00 67 813.1
20260505005715 42 31 17.0 24.0 0.00 0.00 0.00 67 813.1
20260505005605 42 27 17.0 25.0 0.00 0.00 0.00 67 813.0
20260505005455 41 23 17.0 25.0 0.00 0.00 0.00 67 813.0
20260505005345 41 29 17.0 25.0 0.00 0.00 0.00 67 813.1
20260505005125 41 30 17.0 23.0 0.00 0.00 0.00 67 813.1
20260505005015 41 32 19.0 25.0 0.00 0.00 0.00 67 813.0
20260505004905 41 32 18.0 25.0 0.00 0.00 0.00 67 813.0
20260505004755 41 31 18.0 26.0 0.00 0.00 0.00 67 813.0
20260505004645 42 33 18.0 24.0 0.00 0.00 0.00 66 813.0
20260505004535 42 35 19.0 23.0 0.00 0.00 0.00 66 813.1
20260505004425 42 36 20.0 28.0 0.00 0.00 0.00 66 813.1
20260505004315 42 40 21.0 26.0 0.00 0.00 0.00 66 813.1
20260505003945 42 35 21.0 27.0 0.00 0.00 0.00 65 813.0
20260505003835 42 34 21.0 29.0 0.00 0.00 0.00 64 813.0
20260505003505 42 40 23.0 29.0 0.00 0.00 0.00 63 813.0
20260505003355 42 40 24.0 28.0 0.00 0.00 0.00 63 813.0
20260505003245 43 40 24.0 28.0 0.00 0.00 0.00 63 813.0
20260505003135 43 42 24.0 27.0 0.00 0.00 0.00 63 813.0
20260505002915 42 41 25.0 31.0 0.00 0.00 0.00 63 813.0
20260505002805 42 43 24.0 29.0 0.00 0.00 0.00 63 813.0
20260505002656 42 41 26.0 31.0 0.00 0.00 0.00 63 813.0
20260505002546 42 41 24.0 30.0 0.00 0.00 0.00 63 813.0
20260505002435 42 44 23.0 27.0 0.00 0.00 0.00 63 813.0
20260505002325 43 41 23.0 29.0 0.00 0.00 0.00 63 813.0
20260505002215 42 42 23.0 28.0 0.00 0.00 0.00 63 813.0
20260505002105 42 42 25.0 31.0 0.00 0.00 0.00 63 813.0
20260505001955 42 41 23.0 28.0 0.00 0.00 0.00 63 813.0
20260505001735 43 41 24.0 29.0 0.00 0.00 0.00 62 813.0
20260505001515 43 41 25.0 29.0 0.00 0.00 0.00 62 813.0
20260505001405 43 40 26.0 30.0 0.00 0.00 0.00 62 813.0
20260505001255 43 41 25.0 30.0 0.00 0.00 0.00 62 813.0
20260505001145 43 42 25.0 30.0 0.00 0.00 0.00 62 813.0
20260505001035 43 40 25.0 30.0 0.00 0.00 0.00 62 813.0
20260505000925 43 41 25.0 31.0 0.00 0.00 0.00 62 813.0
20260505000815 43 40 25.0 29.0 0.00 0.00 0.00 62 813.0
20260505000705 43 41 27.0 30.0 0.00 0.00 0.00 62 813.0
20260505000555 43 42 25.0 29.0 0.00 0.00 0.00 62 813.0
20260505000445 43 41 27.0 30.0 0.00 0.00 0.00 62 813.0
20260505000335 43 43 27.0 31.0 0.00 0.00 0.00 62 813.0
20260505000226 43 44 26.0 30.0 0.00 0.00 0.00 62 813.0
20260505000116 43 43 27.0 32.0 0.00 0.00 0.00 62 813.0
20260504235635 43 39 26.0 30.0 0.00 0.00 0.00 62 813.0
20260504235525 43 41 26.0 29.0 0.00 0.00 0.00 62 813.0
20260504235415 43 42 25.0 28.0 0.00 0.00 0.00 62 813.0
20260504235305 43 40 26.0 31.0 0.00 0.00 0.00 62 813.0
20260504235155 43 40 25.0 29.0 0.00 0.00 0.00 62 813.0
20260504235045 43 40 26.0 29.0 0.00 0.00 0.00 62 813.0
20260504234935 43 42 27.0 31.0 0.00 0.00 0.00 62 813.0
20260504234715 43 40 22.0 29.0 0.00 0.00 0.00 62 813.0
20260504234605 43 36 20.0 26.0 0.00 0.00 0.00 61 813.1
20260504234455 43 37 21.0 28.0 0.00 0.00 0.00 61 813.1
20260504234345 43 40 26.0 32.0 0.00 0.00 0.00 62 813.1
20260504234235 43 41 24.0 28.0 0.00 0.00 0.00 62 813.1
20260504234125 43 35 22.0 29.0 0.00 0.00 0.00 62 813.1
20260504234015 43 42 24.0 30.0 0.00 0.00 0.00 62 813.1
20260504233905 43 39 22.0 26.0 0.00 0.00 0.00 62 813.1
20260504233645 43 41 22.0 28.0 0.00 0.00 0.00 61 813.3
20260504233535 43 36 24.0 30.0 0.00 0.00 0.00 61 813.3
20260504233425 43 41 25.0 30.0 0.00 0.00 0.00 62 813.1
20260504233315 43 40 25.0 31.0 0.00 0.00 0.00 62 813.3
20260504233206 43 39 22.0 28.0 0.00 0.00 0.00 61 813.3
20260504233055 43 39 23.0 29.0 0.00 0.00 0.00 61 813.3
20260504232945 43 38 21.0 27.0 0.00 0.00 0.00 61 813.3
20260504232835 43 40 24.0 30.0 0.00 0.00 0.00 61 813.3
20260504232725 43 40 25.0 31.0 0.00 0.00 0.00 61 813.1
20260504232615 43 39 24.0 30.0 0.00 0.00 0.00 61 813.3
20260504232355 43 40 25.0 30.0 0.00 0.00 0.00 61 813.3
20260504232245 43 34 23.0 29.0 0.00 0.00 0.00 61 813.3
20260504232136 43 39 23.0 28.0 0.00 0.00 0.00 61 813.3
20260504232025 43 41 27.0 31.0 0.00 0.00 0.00 61 813.3
20260504231915 43 39 26.0 32.0 0.00 0.00 0.00 61 813.0
20260504231545 43 42 24.0 30.0 0.00 0.00 0.00 61 813.3
20260504231435 43 40 24.0 28.0 0.00 0.00 0.00 61 813.3
20260504231325 43 37 26.0 30.0 0.00 0.00 0.00 62 813.0
20260504231215 43 32 23.0 31.0 0.00 0.00 0.00 62 813.0
20260504231105 43 35 22.0 27.0 0.00 0.00 0.00 61 813.3
20260504230955 43 36 23.0 29.0 0.00 0.00 0.00 61 813.3
20260504230735 43 39 22.0 29.0 0.00 0.00 0.00 61 813.4
20260504230625 43 35 20.0 26.0 0.00 0.00 0.00 61 813.4
20260504230515 43 37 22.0 27.0 0.00 0.00 0.00 61 813.4
20260504230405 43 39 24.0 28.0 0.00 0.00 0.00 61 813.3
20260504230255 43 39 21.0 27.0 0.00 0.00 0.00 61 813.3
20260504230145 43 35 20.0 27.0 0.00 0.00 0.00 61 813.3
20260504230035 43 38 25.0 31.0 0.00 0.00 0.00 61 813.4
20260504225925 43 33 21.0 28.0 0.00 0.00 0.00 61 813.4
20260504225815 43 36 23.0 28.0 0.00 0.00 0.00 61 813.3
20260504225705 43 38 22.0 29.0 0.00 0.00 0.00 61 813.4
20260504225445 43 36 21.0 26.0 0.00 0.00 0.00 61 813.4
20260504225335 43 38 22.0 29.0 0.00 0.00 0.00 61 813.3
20260504225225 43 39 25.0 29.0 0.00 0.00 0.00 62 813.4
20260504225115 43 43 23.0 29.0 0.00 0.00 0.00 62 813.4
20260504225005 42 35 23.0 31.0 0.00 0.00 0.00 62 813.3
20260504224745 43 22 16.0 23.0 0.00 0.00 0.00 62 813.4
20260504224635 43 21 14.0 23.0 0.00 0.00 0.00 62 813.4
20260504224525 43 21 15.0 24.0 0.00 0.00 0.00 61 813.4
20260504224415 43 22 16.0 25.0 0.00 0.00 0.00 61 813.4
20260504224305 43 28 19.0 26.0 0.00 0.00 0.00 61 813.4
20260504224155 43 35 21.0 27.0 0.00 0.00 0.00 61 813.4
20260504224045 43 34 20.0 25.0 0.00 0.00 0.00 61 813.4
20260504223935 43 35 21.0 27.0 0.00 0.00 0.00 61 813.4
20260504223825 43 37 20.0 23.0 0.00 0.00 0.00 61 813.4
20260504223715 43 34 20.0 24.0 0.00 0.00 0.00 61 813.4
20260504223605 43 40 20.0 24.0 0.00 0.00 0.00 61 813.4
20260504223455 43 34 20.0 25.0 0.00 0.00 0.00 61 813.5
20260504223345 43 30 17.0 25.0 0.00 0.00 0.00 61 813.5
20260504223235 43 38 21.0 25.0 0.00 0.00 0.00 61 813.5
20260504223125 43 39 22.0 25.0 0.00 0.00 0.00 61 813.5
20260504223015 43 41 23.0 26.0 0.00 0.00 0.00 61 813.5
20260504222905 43 41 22.0 25.0 0.00 0.00 0.00 62 813.5
20260504222755 43 40 22.0 26.0 0.00 0.00 0.00 62 813.5
20260504222645 42 40 21.0 26.0 0.00 0.00 0.00 62 813.5
20260504222535 43 34 16.0 23.0 0.00 0.00 0.00 62 813.5
20260504222425 43 32 19.0 25.0 0.00 0.00 0.00 62 813.4
20260504222315 42 34 18.0 23.0 0.00 0.00 0.00 62 813.5
20260504222205 42 40 19.0 23.0 0.00 0.00 0.00 62 813.5
20260504221945 42 33 17.0 23.0 0.00 0.00 0.00 62 813.8
20260504221835 42 31 17.0 23.0 0.00 0.00 0.00 62 813.7
20260504221725 42 31 17.0 23.0 0.00 0.00 0.00 62 813.7
20260504221615 42 22 12.0 21.0 0.00 0.00 0.00 62 813.7
20260504221505 42 24 15.0 23.0 0.00 0.00 0.00 62 813.7
20260504221356 42 32 17.0 21.0 0.00 0.00 0.00 62 813.7
20260504221245 42 34 17.0 23.0 0.00 0.00 0.00 62 813.7
20260504221135 43 32 17.0 21.0 0.00 0.00 0.00 62 813.8
20260504221025 43 37 18.0 23.0 0.00 0.00 0.00 61 813.7
20260504220806 43 39 18.0 22.0 0.00 0.00 0.00 61 813.8
20260504220655 43 37 20.0 24.0 0.00 0.00 0.00 61 813.5
20260504220545 43 38 20.0 24.0 0.00 0.00 0.00 61 813.5
20260504220215 43 40 20.0 24.0 0.00 0.00 0.00 62 813.7
20260504220105 43 39 19.0 24.0 0.00 0.00 0.00 61 813.7
20260504215955 43 37 18.0 22.0 0.00 0.00 0.00 61 813.7
20260504215735 43 37 21.0 26.0 0.00 0.00 0.00 61 813.5
20260504215625 43 36 19.0 24.0 0.00 0.00 0.00 61 813.5
20260504215515 43 39 21.0 25.0 0.00 0.00 0.00 60 813.7
20260504215405 43 40 21.0 25.0 0.00 0.00 0.00 60 813.7
20260504215255 43 41 21.0 25.0 0.00 0.00 0.00 60 813.5
20260504215035 43 42 21.0 26.0 0.00 0.00 0.00 60 813.5
20260504214815 43 42 23.0 26.0 0.00 0.00 0.00 60 813.4
20260504214555 43 43 22.0 26.0 0.00 0.00 0.00 60 813.7
20260504214445 43 41 22.0 25.0 0.00 0.00 0.00 60 813.5
20260504214335 43 40 22.0 26.0 0.00 0.00 0.00 61 813.5
20260504214115 43 44 21.0 24.0 0.00 0.00 0.00 60 813.8
20260504214005 43 44 20.0 23.0 0.00 0.00 0.00 60 813.5
20260504213855 43 43 21.0 24.0 0.00 0.00 0.00 60 813.7
20260504213745 43 43 22.0 25.0 0.00 0.00 0.00 60 813.5
20260504213415 43 42 21.0 23.0 0.00 0.00 0.00 60 813.8
20260504213306 43 41 21.0 24.0 0.00 0.00 0.00 60 813.5
20260504213155 43 41 22.0 24.0 0.00 0.00 0.00 60 813.5
20260504212935 43 40 22.0 26.0 0.00 0.00 0.00 60 813.7
20260504212825 43 45 19.0 22.0 0.00 0.00 0.00 60 813.8
20260504212715 43 41 23.0 25.0 0.00 0.00 0.00 60 813.7
20260504212605 43 42 23.0 26.0 0.00 0.00 0.00 60 813.7
20260504212455 43 45 22.0 25.0 0.00 0.00 0.00 60 813.7
20260504212345 43 45 22.0 26.0 0.00 0.00 0.00 59 813.5
20260504212235 43 42 24.0 26.0 0.00 0.00 0.00 59 813.7
20260504212125 43 41 25.0 27.0 0.00 0.00 0.00 59 813.7
20260504211905 43 44 25.0 28.0 0.00 0.00 0.00 60 813.5
20260504211755 43 43 24.0 27.0 0.00 0.00 0.00 60 813.5
20260504211645 43 41 23.0 26.0 0.00 0.00 0.00 60 813.5
20260504211535 43 43 23.0 27.0 0.00 0.00 0.00 60 813.5
20260504211425 43 45 22.0 26.0 0.00 0.00 0.00 60 813.5
20260504211205 43 47 22.0 25.0 0.00 0.00 0.00 60 813.7
20260504211055 43 46 23.0 26.0 0.00 0.00 0.00 60 813.5
20260504210835 43 43 22.0 26.0 0.00 0.00 0.00 60 813.7
20260504210725 43 42 21.0 24.0 0.00 0.00 0.00 60 813.5
20260504210615 43 43 22.0 25.0 0.00 0.00 0.00 60 813.4
20260504210505 43 43 22.0 25.0 0.00 0.00 0.00 60 813.5
20260504210355 43 45 22.0 25.0 0.00 0.00 0.00 60 813.5
20260504210135 43 52 21.0 23.0 0.00 0.00 0.00 60 813.5
20260504210025 43 51 21.0 24.0 0.00 0.00 0.00 60 813.4
20260504205915 43 46 22.0 25.0 0.00 0.00 0.00 60 813.4
20260504205805 43 50 21.0 24.0 0.00 0.00 0.00 60 813.5
20260504205545 43 52 24.0 27.0 0.00 0.00 0.00 60 813.4
20260504205435 43 53 23.0 27.0 0.00 0.00 0.00 60 813.4
20260504205325 43 51 24.0 27.0 0.00 0.00 0.00 60 813.4
20260504205215 43 50 24.0 27.0 0.00 0.00 0.00 60 813.4
20260504205105 43 51 23.0 26.0 0.00 0.00 0.00 61 813.4
20260504204955 43 51 24.0 27.0 0.00 0.00 0.00 61 813.4
20260504204845 43 52 24.0 27.0 0.00 0.00 0.00 61 813.4
20260504204735 43 53 22.0 27.0 0.00 0.00 0.00 60 813.4
20260504204625 43 48 23.0 27.0 0.00 0.00 0.00 60 813.4
20260504204515 43 57 22.0 27.0 0.00 0.00 0.00 60 813.4
20260504204255 43 48 25.0 28.0 0.00 0.00 0.00 60 813.4
20260504204145 43 52 26.0 29.0 0.00 0.00 0.00 60 813.3
20260504204035 43 53 23.0 26.0 0.00 0.00 0.00 60 813.4
20260504203925 43 54 25.0 28.0 0.00 0.00 0.00 60 813.3
20260504203705 43 53 22.0 26.0 0.00 0.00 0.00 60 813.4
20260504203555 43 51 23.0 26.0 0.00 0.00 0.00 60 813.4
20260504203445 43 58 21.0 25.0 0.00 0.00 0.00 60 813.4
20260504203335 43 56 23.0 27.0 0.00 0.00 0.00 60 813.4
20260504203115 43 56 24.0 28.0 0.00 0.00 0.00 60 813.4
20260504202745 43 55 22.0 26.0 0.00 0.00 0.00 61 813.4
20260504202635 43 55 21.0 24.0 0.00 0.00 0.00 60 813.4
20260504202525 43 53 23.0 26.0 0.00 0.00 0.00 60 813.4
20260504202415 43 56 23.0 26.0 0.00 0.00 0.00 60 813.4
20260504202305 43 62 21.0 26.0 0.00 0.00 0.00 59 813.4
20260504202045 43 53 27.0 30.0 0.00 0.00 0.00 60 813.4
20260504201935 43 49 25.0 29.0 0.00 0.00 0.00 60 813.4
20260504201825 43 56 23.0 28.0 0.00 0.00 0.00 59 813.4
20260504201715 43 56 24.0 29.0 0.00 0.00 0.00 60 813.4
20260504201605 43 54 25.0 28.0 0.00 0.00 0.00 60 813.4
20260504201455 43 52 24.0 29.0 0.00 0.00 0.00 60 813.4
20260504201345 43 56 24.0 28.0 0.00 0.00 0.00 60 813.4
20260504201235 43 54 23.0 28.0 0.00 0.00 0.00 60 813.4
20260504201015 43 54 23.0 28.0 0.00 0.00 0.00 60 813.4
20260504200755 43 56 23.0 25.0 0.00 0.00 0.00 59 813.3
20260504200646 43 59 23.0 26.0 0.00 0.00 0.00 59 813.4
20260504200425 44 54 25.0 28.0 0.00 0.00 0.00 59 813.3
20260504200315 44 55 25.0 30.0 0.00 0.00 0.00 59 813.4
20260504200205 44 54 22.0 28.0 0.00 0.00 0.00 58 813.3
20260504195945 44 58 26.0 29.0 0.00 0.00 0.00 58 813.3
20260504195615 44 54 25.0 32.0 0.00 0.00 0.00 58 813.4
20260504195506 44 57 24.0 30.0 0.00 0.00 0.00 58 813.3
20260504195355 44 52 27.0 32.0 0.00 0.00 0.00 58 813.3
20260504195245 44 51 28.0 33.0 0.00 0.00 0.00 59 813.3
20260504195135 44 52 24.0 30.0 0.00 0.00 0.00 58 813.3
20260504195025 44 53 25.0 29.0 0.00 0.00 0.00 58 813.3
20260504194915 44 52 26.0 31.0 0.00 0.00 0.00 58 813.3
20260504194807 44 51 27.0 33.0 0.00 0.00 0.00 59 813.3
20260504194655 44 48 26.0 30.0 0.00 0.00 0.00 58 813.3
20260504194545 44 51 24.0 28.0 0.00 0.00 0.00 59 813.4
20260504194435 43 53 25.0 33.0 0.00 0.00 0.00 58 813.3
20260504194325 44 53 24.0 27.0 0.00 0.00 0.00 58 813.4
20260504194215 44 56 23.0 26.0 0.00 0.00 0.00 57 813.4
20260504193956 44 55 26.0 31.0 0.00 0.00 0.00 58 813.1
20260504193845 44 54 25.0 31.0 0.00 0.00 0.00 57 813.1
20260504193735 44 57 23.0 26.0 0.00 0.00 0.00 57 813.4
20260504193625 44 56 24.0 28.0 0.00 0.00 0.00 57 813.4
20260504193515 44 57 26.0 31.0 0.00 0.00 0.00 58 813.3
20260504193405 44 59 25.0 30.0 0.00 0.00 0.00 57 813.3
20260504193255 44 55 27.0 31.0 0.00 0.00 0.00 57 813.4
20260504193145 44 53 25.0 29.0 0.00 0.00 0.00 57 813.4
20260504193036 44 53 25.0 29.0 0.00 0.00 0.00 57 813.4
20260504192925 44 55 25.0 31.0 0.00 0.00 0.00 57 813.4
20260504192815 44 52 27.0 32.0 0.00 0.00 0.00 57 813.3
20260504192705 44 55 26.0 31.0 0.00 0.00 0.00 57 813.3
20260504192555 44 56 24.0 29.0 0.00 0.00 0.00 56 813.4
20260504192445 44 53 27.0 30.0 0.00 0.00 0.00 56 813.3
20260504192335 44 55 27.0 32.0 0.00 0.00 0.00 56 813.3
20260504192225 44 48 27.0 33.0 0.00 0.00 0.00 56 813.3
20260504192115 44 50 27.0 32.0 0.00 0.00 0.00 56 813.1
20260504192005 44 55 23.0 29.0 0.00 0.00 0.00 56 813.3
20260504191856 44 53 28.0 33.0 0.00 0.00 0.00 56 813.3
20260504191745 44 56 26.0 32.0 0.00 0.00 0.00 56 813.3
20260504191635 44 57 24.0 31.0 0.00 0.00 0.00 56 813.3
20260504191525 44 55 27.0 30.0 0.00 0.00 0.00 55 813.3
20260504191415 44 61 26.0 30.0 0.00 0.00 0.00 55 813.3
20260504191155 44 54 27.0 31.0 0.00 0.00 0.00 55 813.1
20260504190935 44 55 29.0 39.0 0.00 0.00 0.00 56 813.0
20260504190825 44 52 28.0 34.0 0.00 0.00 0.00 55 813.3
20260504190605 44 55 27.0 32.0 0.00 0.00 0.00 54 813.1
20260504190455 45 55 28.0 32.0 0.00 0.00 0.00 54 813.1
20260504190345 45 56 28.0 32.0 0.00 0.00 0.00 54 813.1
20260504190235 44 53 30.0 34.0 0.00 0.00 0.00 54 813.1
20260504190125 44 56 31.0 36.0 0.00 0.00 0.00 54 813.1
20260504190015 44 55 29.0 35.0 0.00 0.00 0.00 54 813.1
20260504185905 44 54 30.0 35.0 0.00 0.00 0.00 54 813.0
20260504185755 44 57 26.0 34.0 0.00 0.00 0.00 54 813.1
20260504185535 44 52 30.0 33.0 0.00 0.00 0.00 54 813.1
20260504185425 44 55 27.0 33.0 0.00 0.00 0.00 53 813.3
20260504185205 44 61 24.0 31.0 0.00 0.00 0.00 53 813.1
20260504185057 44 63 24.0 29.0 0.00 0.00 0.00 53 813.4
20260504184945 44 59 28.0 34.0 0.00 0.00 0.00 53 813.1
20260504184835 44 55 27.0 31.0 0.00 0.00 0.00 52 813.0
20260504184731 44 57 26.0 31.0 0.00 0.00 0.00 52 813.1
20260504184355 44 65 25.0 30.0 0.00 0.00 0.00 53 813.3
20260504184245 44 70 22.0 30.0 0.00 0.00 0.00 53 813.3
20260504184135 44 80 19.0 24.0 0.00 0.00 0.00 52 813.5
20260504184025 45 67 21.0 26.0 0.00 0.00 0.00 52 813.3
20260504183915 45 74 22.0 32.0 0.00 0.00 0.00 52 813.4
20260504183656 45 73 25.0 30.0 0.00 0.00 0.00 51 813.3
20260504183546 45 73 24.0 30.0 0.00 0.00 0.00 51 813.3
20260504183435 45 74 26.0 33.0 0.00 0.00 0.00 51 813.3
20260504183325 45 77 23.0 32.0 0.00 0.00 0.00 51 813.4
20260504183217 45 79 24.0 35.0 0.00 0.00 0.00 51 813.3
20260504182956 44 76 21.0 28.0 0.00 0.00 0.00 51 813.1
20260504182848 44 73 24.0 31.0 0.00 0.00 0.00 51 813.4
20260504182735 44 79 21.0 29.0 0.00 0.00 0.00 52 813.4
20260504182625 44 83 21.0 28.0 0.00 0.00 0.00 51 813.4
20260504182515 45 72 20.0 25.0 0.00 0.00 0.00 51 813.3
20260504182405 45 74 21.0 26.0 0.00 0.00 0.00 51 813.5
20260504182144 45 75 23.0 27.0 0.00 0.00 0.00 50 813.5
20260504181927 45 82 23.0 31.0 0.00 0.00 0.00 50 813.4
20260504181705 45 78 23.0 29.0 0.00 0.00 0.00 50 813.4
20260504181555 45 75 24.0 31.0 0.00 0.00 0.00 50 813.4
20260504181445 45 82 25.0 34.0 0.00 0.00 0.00 50 813.4
20260504181228 45 83 22.0 30.0 0.00 0.00 0.00 50 813.4
20260504181115 45 74 22.0 33.0 0.00 0.00 0.00 50 813.5
20260504181005 45 75 22.0 27.0 0.00 0.00 0.00 50 813.3
20260504180855 45 76 22.0 29.0 0.00 0.00 0.00 50 813.4
20260504180416 45 66 22.0 34.0 0.00 0.00 0.00 50 813.3
20260504180305 45 72 21.0 30.0 0.00 0.00 0.00 50 813.5
20260504180155 45 77 20.0 26.0 0.00 0.00 0.00 49 813.5
20260504180046 45 77 21.0 31.0 0.00 0.00 0.00 49 813.5
20260504175937 45 73 23.0 31.0 0.00 0.00 0.00 49 813.3
20260504175825 45 79 23.0 32.0 0.00 0.00 0.00 49 813.5
20260504175715 45 79 24.0 31.0 0.00 0.00 0.00 49 813.4
20260504175605 45 81 21.0 27.0 0.00 0.00 0.00 49 813.4
20260504175455 45 72 21.0 26.0 0.00 0.00 0.00 49 813.4
20260504175346 45 68 23.0 27.0 0.00 0.00 0.00 49 813.3
20260504175235 45 76 21.0 29.0 0.00 0.00 0.00 48 813.4
20260504175125 45 70 24.0 31.0 0.00 0.00 0.00 49 813.0
20260504175015 45 74 22.0 29.0 0.00 0.00 0.00 49 813.3
20260504174905 45 81 19.0 28.0 0.00 0.00 0.00 48 813.4
20260504174645 45 70 22.0 29.0 0.00 0.00 0.00 49 813.3
20260504174535 45 73 22.0 27.0 0.00 0.00 0.00 49 813.4
20260504174425 45 78 20.0 25.0 0.00 0.00 0.00 49 813.4
20260504174315 45 73 19.0 25.0 0.00 0.00 0.00 49 813.3
20260504174205 45 78 18.0 22.0 0.00 0.00 0.00 49 813.5
20260504174055 45 90 20.0 27.0 0.00 0.00 0.00 48 813.4
20260504173947 45 67 19.0 25.0 0.00 0.00 0.00 48 813.4
20260504173727 45 79 19.0 25.0 0.00 0.00 0.00 48 813.4
20260504173615 45 80 19.0 25.0 0.00 0.00 0.00 48 813.4
20260504173506 45 74 19.0 23.0 0.00 0.00 0.00 48 813.4
20260504173355 45 70 23.0 29.0 0.00 0.00 0.00 48 813.3
20260504173245 45 62 19.0 24.0 0.00 0.00 0.00 48 813.3
20260504172805 45 67 24.0 34.0 0.00 0.00 0.00 48 813.1
20260504172655 45 68 21.0 28.0 0.00 0.00 0.00 48 813.3
20260504172545 45 83 19.0 27.0 0.00 0.00 0.00 48 813.3
20260504172435 45 68 24.0 31.0 0.00 0.00 0.00 48 813.3
20260504172329 45 72 18.0 24.0 0.00 0.00 0.00 48 813.3
20260504172214 45 63 23.0 30.0 0.00 0.00 0.00 48 813.1
20260504172105 45 81 22.0 30.0 0.00 0.00 0.00 48 813.1
20260504171958 45 79 19.0 30.0 0.00 0.00 0.00 48 813.4
20260504171846 45 69 15.0 21.0 0.00 0.00 0.00 49 813.4
20260504171735 45 67 17.0 24.0 0.00 0.00 0.00 48 813.3
20260504171628 45 73 19.0 27.0 0.00 0.00 0.00 48 813.3
20260504171515 46 62 20.0 30.0 0.00 0.00 0.00 48 813.3
20260504171405 46 79 19.0 28.0 0.00 0.00 0.00 47 813.4
20260504171145 46 71 26.0 34.0 0.00 0.00 0.00 46 813.3
20260504171035 46 72 25.0 33.0 0.00 0.00 0.00 47 813.1
20260504170925 46 69 23.0 35.0 0.00 0.00 0.00 48 813.3
20260504170815 46 71 19.0 26.0 0.00 0.00 0.00 48 813.0
20260504170445 46 85 18.0 24.0 0.00 0.00 0.00 48 813.4
20260504170226 46 100 20.0 28.0 0.00 0.00 0.00 49 813.3
20260504170114 46 91 17.0 23.0 0.00 0.00 0.00 48 813.4
20260504160404 46 49 25.0 31.0 0.00 0.00 0.00 49 813.0
20260504160255 46 51 24.0 31.0 0.00 0.00 0.00 48 813.0
20260504160144 46 62 25.0 30.0 0.00 0.00 0.00 49 813.1
20260504151135 46 33 20.0 31.0 0.00 0.00 0.00 55 813.3
20260504150914 46 15 19.0 31.0 0.00 0.00 0.00 59 813.1
20260504150804 46 29 19.0 28.0 0.00 0.00 0.00 58 813.1
20260504150654 46 14 20.0 29.0 0.00 0.00 0.00 59 813.1
20260504150544 46 30 18.0 35.0 0.00 0.00 0.00 60 813.1
20260504150434 46 34 18.0 25.0 0.00 0.00 0.00 60 813.3
20260504150324 46 35 23.0 30.0 0.00 0.00 0.00 59 813.0
20260504150214 46 48 20.0 31.0 0.00 0.00 0.00 59 813.3
20260504150104 46 37 15.0 22.0 0.00 0.00 0.00 60 813.3
20260504141315 47 47 26.0 32.0 0.00 0.00 0.00 55 813.0
20260504141204 47 36 25.0 34.0 0.00 0.00 0.00 55 813.1
20260504141054 47 30 25.0 36.0 0.00 0.00 0.00 53 813.1
20260504140834 47 36 26.0 34.0 0.00 0.00 0.00 58 813.0
20260504140724 47 30 21.0 31.0 0.00 0.00 0.00 61 813.1
20260504140615 46 15 19.0 35.0 0.00 0.00 0.00 60 813.1
20260504140505 46 4 22.0 33.0 0.00 0.00 0.00 60 813.0
20260504140354 46 17 15.0 28.0 0.00 0.00 0.00 60 813.1
20260504140244 46 38 20.0 27.0 0.00 0.00 0.00 60 813.1
20260504140134 46 13 13.0 21.0 0.00 0.00 0.00 58 813.3